Hourly Weather Roundup
Issued by NWS Central Illinois

Home | Current Version | Previous Version | Text Only | Print | Product List | Glossary On
Versions: 1 2 3 4 5 6 7 8 9 10 11 12 13 14 15 16 17 18 19 20 21 22 23 24 25 26 27 28 29 30 31 32 33 34 35 36 37 38 39 40 41 42 43 44 45 46 47 48 49 50
000
NZUS43 KILX 302110
HWRILX

AREA WEATHER ROUNDUP
NATIONAL WEATHER SERVICE, LINCOLN IL
400 PM CDT WED JUL 30 2014


CITY           SKY/WX    TMP DP  RH WIND       PRES   REMARKS
BLOOMINGTON    MOSUNNY   77  55  46 NW8       30.07S
CHAMPAIGN      MOSUNNY   79  60  52 W12       30.05F HX  80
DECATUR        MOSUNNY   81  56  42 NW10      30.06F HX  81
FLORA          SUNNY     81  52  35 SW6       30.06F HX  80
GALESBURG      MOSUNNY   83  60  46 W8        30.06F HX  83
JACKSONVILLE   MOSUNNY   81  61  51 NW6       30.07F HX  82
LACON          SUNNY     81  56  43 NW9       30.03F HX  81
LAWRENCEVILLE  MOSUNNY   81  59  47 W10       30.06F HX  81
LITCHFIELD     MOSUNNY   80  56  44 W5        30.06F HX  80
$$


CITY           SKY/WX    TMP DP  RH WIND       PRES   REMARKS
LINCOLN        SUNNY     81  57  43 NW7       30.02F HX  81
MACOMB         MOSUNNY   77  59  55 NW5       30.09F
MATTOON        MOSUNNY   79  59  50 W8        30.05F HX  80
MT CARMEL AP   PTSUNNY   82  59  44 W8        30.06F HX  82
OLNEY-NOBLE AP SUNNY     81  59  47 CALM      30.06F HX  81
PARIS          PTSUNNY   78  62  57 W9        30.05F
PEORIA         MOSUNNY   82  56  40 NW6       30.05F HX  82
PONTIAC        MOSUNNY   79  61  53 W6        30.04S HX  80
RANTOUL        MOSUNNY   77  58  52 W8G18     30.06S
ROBINSON       MOSUNNY   80  62  53 W7        30.06S HX  81
SPRINGFIELD    MOSUNNY   81  58  45 NW7       30.06F HX  81
TAYLORVILLE    MOSUNNY   77  57  50 W5        30.06F
$$

...REGIONAL REPORTS...


CITY           SKY/WX    TMP DP  RH WIND       PRES   REMARKS
CHICAGO O`HARE PTSUNNY   72  57  59 NE10      30.02S
KANKAKEE       SUNNY     77  61  56 NW6       30.03F
MOLINE         SUNNY     82  57  42 NW10      30.04F HX  82
MOUNT VERNON   MOSUNNY   82  57  42 SW9       30.07F HX  82
PITTSFIELD     MOSUNNY   81  56  42 NW5       30.08S HX  81
QUINCY         MOSUNNY   80  56  43 N7        30.07F HX  80
ROCKFORD       LGT RAIN  75  56  51 NW10      30.04S
$$


CITY           SKY/WX    TMP DP  RH WIND       PRES   REMARKS
BURLINGTON     SUNNY     80  56  43 NW5       30.06F HX  80
CEDAR RAPIDS   MOSUNNY   79  58  48 NW10      30.06F HX  80
DES MOINES     MOSUNNY   82  54  37 NW8       30.08F HX  81
KIRKSVILLE     PTSUNNY   79  55  43 N5        30.09F
OTTUMWA        MOSUNNY   78  59  51 N6        30.06F
ST LOUIS       PTSUNNY   85  55  35 N7        30.06F HX  83
$$


CITY           SKY/WX    TMP DP  RH WIND       PRES   REMARKS
TERRE HAUTE    PTSUNNY   76  59  55 W9        30.04F
EVANSVILLE     MOSUNNY   83  53  35 W8        30.06F HX  82
INDIANAPOLIS   PTSUNNY   76  60  57 SW15      30.03F
LAFAYETTE      SUNNY     79  57  46 W12G20    30.02S HX  80
MADISON        MOSUNNY   77  53  43 N8        30.04S
MILWAUKEE      MOSUNNY   68  56  65 E8        30.03F
$$





USA.gov is the U.S. government's official web portal to all federal, state and local government web resources and services.